{"data":{"norad_id":66458,"epoch":"2026-05-25T04:35:47.412672Z","epoch_age_seconds":58481,"freshness":"FRESH","line1":"1 66458U 25262C   26145.19152098  .00015234  00000+0  56188-3 0  9994","line2":"2 66458  42.9988 224.3700 0001261 280.9956  79.0754 15.27585409 30605","mean_motion":15.27585409,"eccentricity":0.0001261,"inclination_deg":42.9988,"raan_deg":224.37,"arg_perigee_deg":280.9956,"mean_anomaly_deg":79.0754,"bstar":0.00056188,"rev_number":3060,"period_min":94.266414926198,"perigee_km":482.16770607123,"apogee_km":483.89809311991,"semimajor_km":6861.1698995956,"source":"CELESTRAK","updated_at":"2026-05-25T13:38:21.214115Z"}}